Location: Artiguedieu
(43.5000°N, 0.5454°E)
Time: 03:08:47
(UTC+00:00)

X-37B - Visible Passes

Search period start: 25 June 2021 00:00
Search period end: 05 July 2021 00:00
Orbit: 386 x 389 km, 45.0° (Epoch: 23 June)

Date Brightness Start Highest point End Pass type
(mag) Time Alt. Az. Time Alt. Az. Time Alt. Az.
25 Jun 0.7 21:46:13 10° W 21:49:25 74° N 21:51:49 16° ENE visible
25 Jun 2.8 23:23:00 10° WNW 23:24:06 20° WNW 23:24:06 20° WNW visible
26 Jun 0.5 20:47:50 10° WSW 20:51:01 86° SSE 20:54:12 10° ENE visible
26 Jun 0.9 22:24:36 10° W 22:27:46 64° N 22:28:13 54° NE visible
27 Jun 1.0 21:26:10 10° W 21:29:20 64° N 21:32:13 12° E visible
27 Jun 2.4 23:02:54 10° WNW 23:04:29 26° WNW 23:04:29 26° WNW visible
28 Jun 0.8 20:27:45 10° W 20:30:56 73° N 20:34:06 10° ENE visible
28 Jun 0.7 22:04:31 10° WNW 22:07:42 73° N 22:08:25 49° ENE visible
29 Jun 1.0 21:06:07 10° W 21:09:17 64° N 21:12:19 11° E visible
29 Jun 2.1 22:42:49 10° W 22:44:35 29° W 22:44:35 29° W visible
30 Jun 0.5 21:44:25 10° WNW 21:47:37 86° S 21:48:28 45° ESE visible
01 Jul 0.7 20:46:02 10° WNW 20:49:13 73° N 20:52:22 10° E visible
01 Jul 2.1 22:22:47 10° W 22:24:38 26° WSW 22:24:38 26° WSW visible
02 Jul 0.7 21:24:20 10° W 21:27:28 59° SSW 21:28:32 35° SE visible
03 Jul 0.6 20:25:56 10° WNW 20:29:08 86° SSW 20:32:19 10° ESE visible
03 Jul 2.5 22:02:57 10° W 22:04:44 20° SW 22:04:44 20° SW visible
04 Jul 1.4 21:04:19 10° W 21:07:16 36° SSW 21:08:42 23° SSE visible
